GPS BIII-10 (PRN 13)

Last updated on Wed Jun 24 2026 00:03:27 GMT+0000 (Coordinated Universal Time)

1 68791U 26087A 26173.65141046 .00000058 00000+0 00000+0 0 9991 2 68791 54.9627 207.5713 0020681 106.6591 76.9843 2.00570839 940
UTC large
Height (km)
Speed (km/s)
/
Latitude / Longitude
Inclination (degrees)
Orbital Period (minutes)
Azimuth
Elevation
Range (km)
Doppler Factor

Next 0 passes for location: London (51.5072 / 0.1276)

No passes found over London.
GPS BIII-10 (PRN 13)